EJU24VC LFBD-EDDB

Flight info

Callsign EJU24VC
Flight time N/A
Altitude 34000
Route CNA DCT ADABI DCT BOKNO DCT DIBES DCT VIQAQ DCT TSU DCT OQQAL DCT RANUX DCT VALEK DCT LIPNI UN858 LIMGO DCT MASEK T278 KLF KLF1R
Aircraft A319/M-SDE2E3FGIJ1RWXYZ/LB1

Departure

Time 2026-05-07 17:50
Airport Bordeaux–Mérignac Airport (LFBD)

Arrival

Time N/A
Airport Berlin Brandenburg Airport (EDDB)
Time Latitude Longitude Altitude Speed Heading
2026-05-07 17:15 44.83181 -0.70353 166 ft 0 kts 134°
2026-05-07 17:25 44.83181 -0.70354 165 ft 0 kts 134°
2026-05-07 17:31 44.83182 -0.70354 165 ft 0 kts 134°
2026-05-07 17:39 44.83195 -0.70374 165 ft 3 kts 134°
2026-05-07 17:39 44.83212 -0.70398 165 ft 3 kts 134°
2026-05-07 17:39 44.83225 -0.70419 166 ft 3 kts 103°
2026-05-07 17:40 44.83222 -0.70450 166 ft 3 kts 54°
2026-05-07 17:40 44.83207 -0.70474 166 ft 3 kts 45°
2026-05-07 17:40 44.83190 -0.70498 165 ft 3 kts 45°
2026-05-07 17:40 44.83173 -0.70523 165 ft 3 kts 45°
2026-05-07 17:41 44.83156 -0.70546 165 ft 2 kts 45°
2026-05-07 17:41 44.83155 -0.70548 165 ft 1 kts 45°
2026-05-07 17:43 44.83169 -0.70531 165 ft 6 kts 34°
2026-05-07 17:44 44.83204 -0.70582 165 ft 11 kts 265°
2026-05-07 17:44 44.83138 -0.70694 166 ft 19 kts 226°
2026-05-07 17:44 44.83033 -0.70844 166 ft 20 kts 225°
2026-05-07 17:44 44.82952 -0.70959 165 ft 17 kts 225°
2026-05-07 17:45 44.82865 -0.71084 163 ft 19 kts 226°
2026-05-07 17:45 44.82773 -0.71218 160 ft 20 kts 226°
2026-05-07 17:45 44.82683 -0.71346 164 ft 17 kts 224°
2026-05-07 17:45 44.82598 -0.71460 165 ft 17 kts 223°
2026-05-07 17:46 44.82519 -0.71573 167 ft 16 kts 226°
2026-05-07 17:46 44.82441 -0.71686 167 ft 17 kts 225°
2026-05-07 17:46 44.82355 -0.71805 166 ft 18 kts 225°
2026-05-07 17:46 44.82265 -0.71931 164 ft 19 kts 225°
2026-05-07 17:47 44.82170 -0.72065 164 ft 19 kts 225°
2026-05-07 17:47 44.82086 -0.72205 163 ft 18 kts 242°
2026-05-07 17:47 44.82069 -0.72348 163 ft 15 kts 276°
2026-05-07 17:47 44.82106 -0.72442 163 ft 8 kts 315°
2026-05-07 17:48 44.82141 -0.72496 165 ft 6 kts 297°
2026-05-07 17:48 44.82149 -0.72536 166 ft 2 kts 303°
2026-05-07 17:48 44.82169 -0.72529 166 ft 5 kts 32°
2026-05-07 17:48 44.82179 -0.72514 166 ft 0 kts 46°
2026-05-07 17:49 44.82186 -0.72504 165 ft 12 kts 46°
2026-05-07 17:49 44.82442 -0.72141 163 ft 88 kts 46°
2026-05-07 17:50 44.83011 -0.71324 164 ft 144 kts 45°
2026-05-07 17:50 44.83791 -0.70193 438 ft 167 kts 47°
2026-05-07 17:50 44.84612 -0.68999 1056 ft 173 kts 46°
2026-05-07 17:50 44.85467 -0.67787 1752 ft 175 kts 47°
2026-05-07 17:51 44.86354 -0.66536 2272 ft 189 kts 47°
2026-05-07 17:51 44.87324 -0.65162 2733 ft 206 kts 47°
2026-05-07 17:51 44.88370 -0.63675 3213 ft 223 kts 47°
2026-05-07 17:51 44.89519 -0.62032 3610 ft 248 kts 46°
2026-05-07 17:52 44.90759 -0.60240 4350 ft 259 kts 47°
2026-05-07 17:52 44.92055 -0.58425 5255 ft 266 kts 41°
2026-05-07 17:52 44.93622 -0.56989 6120 ft 273 kts 25°
2026-05-07 17:52 44.95440 -0.56181 6981 ft 277 kts
2026-05-07 17:53 44.97370 -0.55991 7858 ft 280 kts
2026-05-07 17:53 44.99334 -0.55890 8766 ft 284 kts
2026-05-07 17:53 45.01322 -0.55783 9668 ft 288 kts
2026-05-07 17:53 45.03354 -0.55668 10311 ft 301 kts
2026-05-07 17:54 45.05529 -0.55543 10636 ft 323 kts
2026-05-07 17:54 45.07806 -0.55410 11267 ft 332 kts
2026-05-07 17:54 45.10149 -0.55269 11777 ft 339 kts
2026-05-07 17:54 45.12505 -0.55128 11913 ft 340 kts
2026-05-07 17:55 45.14865 -0.54812 11940 ft 341 kts
2026-05-07 17:55 45.17155 -0.53906 11944 ft 342 kts 17°
2026-05-07 17:55 45.19417 -0.52858 11941 ft 342 kts 17°
2026-05-07 17:55 45.21681 -0.51812 11945 ft 343 kts 17°
2026-05-07 17:56 45.23948 -0.50764 11945 ft 343 kts 17°
2026-05-07 17:56 45.26214 -0.49713 11940 ft 342 kts 17°
2026-05-07 17:56 45.28474 -0.48662 11945 ft 342 kts 17°
2026-05-07 17:56 45.30742 -0.47607 11940 ft 342 kts 17°
2026-05-07 17:57 45.33008 -0.46555 11941 ft 342 kts 17°
2026-05-07 17:57 45.34506 -0.45860 11940 ft 342 kts 17°
2026-05-07 17:57 45.37538 -0.44451 11945 ft 343 kts 17°
2026-05-07 17:57 45.39817 -0.43391 12196 ft 348 kts 17°
2026-05-07 17:58 45.42121 -0.42316 13070 ft 350 kts 17°
2026-05-07 17:58 45.44453 -0.41231 13849 ft 355 kts 17°
2026-05-07 17:58 45.46811 -0.40133 14527 ft 359 kts 17°
2026-05-07 17:58 45.49202 -0.39020 15220 ft 363 kts 17°
2026-05-07 17:59 45.51491 -0.37953 15866 ft 366 kts 17°
2026-05-07 17:59 45.53925 -0.36814 16554 ft 370 kts 17°
2026-05-07 17:59 45.56382 -0.35659 17226 ft 374 kts 17°
2026-05-07 17:59 45.58865 -0.34491 17895 ft 377 kts 17°
2026-05-07 18:00 45.61370 -0.33315 18526 ft 381 kts 17°
2026-05-07 18:00 45.63903 -0.32127 19106 ft 385 kts 17°
2026-05-07 18:00 45.66390 -0.30671 19679 ft 389 kts 26°
2026-05-07 18:00 45.68720 -0.28653 20263 ft 393 kts 32°
2026-05-07 18:01 45.71028 -0.26526 20848 ft 397 kts 32°
2026-05-07 18:01 45.73358 -0.24380 21430 ft 400 kts 32°
2026-05-07 18:01 45.75706 -0.22219 22006 ft 404 kts 32°
2026-05-07 18:01 45.78083 -0.20031 22579 ft 407 kts 32°
2026-05-07 18:02 45.82884 -0.15601 23681 ft 414 kts 32°
2026-05-07 18:02 45.85317 -0.13356 24133 ft 418 kts 32°
2026-05-07 18:02 45.87773 -0.11092 24589 ft 421 kts 32°
2026-05-07 18:03 45.90244 -0.08813 25046 ft 424 kts 32°
2026-05-07 18:03 45.92765 -0.06483 25500 ft 427 kts 32°
2026-05-07 18:03 45.95270 -0.04158 25939 ft 430 kts 32°
2026-05-07 18:03 45.97786 -0.01815 26364 ft 433 kts 32°
2026-05-07 18:04 46.00291 0.00518 26776 ft 436 kts 32°
2026-05-07 18:04 46.02844 0.02898 27188 ft 439 kts 32°
2026-05-07 18:04 46.05415 0.05291 27600 ft 442 kts 32°
2026-05-07 18:04 46.08009 0.07708 28011 ft 445 kts 32°
2026-05-07 18:05 46.10613 0.10139 28413 ft 448 kts 32°
2026-05-07 18:05 46.13240 0.12596 28813 ft 451 kts 32°
2026-05-07 18:05 46.15879 0.15069 29207 ft 454 kts 32°
2026-05-07 18:05 46.18537 0.17564 29590 ft 457 kts 32°
2026-05-07 18:06 46.21210 0.20075 29972 ft 460 kts 32°
2026-05-07 18:06 46.23896 0.22597 30296 ft 462 kts 32°
2026-05-07 18:06 46.26600 0.25137 30611 ft 465 kts 32°
2026-05-07 18:06 46.29322 0.27700 30916 ft 468 kts 32°
2026-05-07 18:07 46.32052 0.30271 31210 ft 470 kts 32°
2026-05-07 18:07 46.34803 0.32862 31505 ft 472 kts 32°
2026-05-07 18:07 46.37558 0.35459 31911 ft 472 kts 32°
2026-05-07 18:07 46.40305 0.38057 32324 ft 472 kts 32°
2026-05-07 18:08 46.43053 0.40660 32721 ft 472 kts 32°
2026-05-07 18:08 46.45800 0.43266 33110 ft 472 kts 32°
2026-05-07 18:08 46.48550 0.45877 33498 ft 472 kts 32°
2026-05-07 18:08 46.51298 0.48490 33868 ft 473 kts 32°
2026-05-07 18:09 46.54068 0.51053 33981 ft 468 kts 27°
2026-05-07 18:09 46.59830 0.55065 33968 ft 455 kts 24°
2026-05-07 18:10 46.65525 0.59032 33974 ft 453 kts 24°
2026-05-07 18:10 46.71214 0.62977 33969 ft 453 kts 23°
2026-05-07 18:11 46.76903 0.66910 33977 ft 452 kts 23°
2026-05-07 18:11 46.82589 0.70834 33986 ft 452 kts 23°
2026-05-07 18:12 46.88271 0.74781 33980 ft 452 kts 23°
2026-05-07 18:12 46.93950 0.78731 33987 ft 452 kts 23°
2026-05-07 18:13 46.99626 0.82706 33985 ft 452 kts 23°
2026-05-07 18:13 47.05299 0.86679 33991 ft 452 kts 23°
2026-05-07 18:14 47.10965 0.90650 33988 ft 451 kts 23°
2026-05-07 18:14 47.16622 0.94626 33994 ft 451 kts 23°
2026-05-07 18:15 47.22281 0.98614 33995 ft 450 kts 23°
2026-05-07 18:15 47.27927 1.02599 33997 ft 450 kts 23°
2026-05-07 18:16 47.33560 1.06582 33998 ft 449 kts 23°
2026-05-07 18:16 47.39197 1.10583 33993 ft 449 kts 23°
2026-05-07 18:17 47.44817 1.14577 33992 ft 448 kts 23°
2026-05-07 18:17 47.50477 1.18614 33999 ft 459 kts 23°
2026-05-07 18:18 47.56354 1.22807 33998 ft 476 kts 23°
2026-05-07 18:18 47.62346 1.27099 33998 ft 479 kts 24°
2026-05-07 18:19 47.68349 1.31427 33998 ft 479 kts 24°
2026-05-07 18:19 47.74343 1.35747 33995 ft 479 kts 24°
2026-05-07 18:20 47.80327 1.40061 33999 ft 478 kts 24°
2026-05-07 18:20 47.86303 1.44387 34005 ft 477 kts 24°
2026-05-07 18:21 47.92271 1.48718 34008 ft 477 kts 24°
2026-05-07 18:21 47.97226 1.52315 34013 ft 476 kts 24°
2026-05-07 18:22 48.03181 1.56660 34015 ft 476 kts 24°
2026-05-07 18:22 48.09125 1.61015 34013 ft 476 kts 24°
2026-05-07 18:23 48.15066 1.65368 34016 ft 475 kts 24°
2026-05-07 18:23 48.20995 1.69723 34021 ft 475 kts 24°
2026-05-07 18:24 48.26958 1.74128 34023 ft 474 kts 24°
2026-05-07 18:24 48.32873 1.78498 34029 ft 473 kts 24°
2026-05-07 18:25 48.38739 1.82837 34028 ft 472 kts 24°
2026-05-07 18:25 48.44625 1.87208 34037 ft 471 kts 24°
2026-05-07 18:26 48.50501 1.91586 34037 ft 471 kts 24°
2026-05-07 18:26 48.56371 1.95960 34039 ft 470 kts 24°
2026-05-07 18:27 48.62220 2.00343 34036 ft 469 kts 25°
2026-05-07 18:27 48.68064 2.04744 34034 ft 469 kts 25°
2026-05-07 18:28 48.73361 2.10471 34023 ft 472 kts 46°
2026-05-07 18:28 48.75370 2.14403 34022 ft 472 kts 58°
2026-05-07 18:28 48.76840 2.18838 34017 ft 472 kts 70°
2026-05-07 18:29 48.78672 2.28391 34014 ft 472 kts 75°
2026-05-07 18:29 48.80385 2.38005 34013 ft 473 kts 75°
2026-05-07 18:30 48.82100 2.47641 34019 ft 473 kts 75°
2026-05-07 18:30 48.83817 2.57283 34041 ft 474 kts 75°
2026-05-07 18:31 48.85522 2.66945 34049 ft 474 kts 75°
2026-05-07 18:31 48.87207 2.76614 34048 ft 474 kts 75°
2026-05-07 18:32 48.88893 2.86275 34049 ft 473 kts 75°
2026-05-07 18:32 48.90580 2.95940 34043 ft 473 kts 75°
2026-05-07 18:33 48.92248 3.05611 34044 ft 473 kts 75°
2026-05-07 18:33 48.93905 3.15283 34041 ft 473 kts 76°
2026-05-07 18:34 48.95555 3.24956 34058 ft 473 kts 76°
2026-05-07 18:34 48.97201 3.34645 34048 ft 473 kts 76°
2026-05-07 18:35 48.98840 3.44330 34060 ft 473 kts 76°
2026-05-07 18:35 49.00472 3.54022 34051 ft 472 kts 76°
2026-05-07 18:36 49.02090 3.63728 34049 ft 473 kts 76°
2026-05-07 18:36 49.03699 3.73437 34052 ft 473 kts 76°
2026-05-07 18:37 49.05298 3.83158 34052 ft 473 kts 76°
2026-05-07 18:37 49.06890 3.92892 34048 ft 473 kts 76°
2026-05-07 18:38 49.08479 4.02629 34052 ft 473 kts 76°
2026-05-07 18:38 49.10064 4.12363 34051 ft 473 kts 76°
2026-05-07 18:39 49.11633 4.22105 34051 ft 472 kts 76°
2026-05-07 18:39 49.13189 4.31842 34043 ft 473 kts 76°
2026-05-07 18:40 49.15288 4.41343 34048 ft 472 kts 67°
2026-05-07 18:40 49.17818 4.50603 34055 ft 472 kts 67°
2026-05-07 18:41 49.20337 4.59877 34055 ft 472 kts 67°
2026-05-07 18:41 49.22840 4.69161 34056 ft 472 kts 67°
2026-05-07 18:42 49.25326 4.78465 34061 ft 472 kts 67°
2026-05-07 18:42 49.27810 4.87772 34054 ft 472 kts 67°
2026-05-07 18:43 49.30298 4.97097 34028 ft 474 kts 67°
2026-05-07 18:43 49.32782 5.06463 34029 ft 475 kts 67°
2026-05-07 18:44 49.35250 5.15812 34245 ft 478 kts 67°
2026-05-07 18:44 49.36487 5.20540 34553 ft 478 kts 68°
2026-05-07 18:44 49.37716 5.25273 34843 ft 478 kts 68°
2026-05-07 18:44 49.38943 5.30025 35031 ft 479 kts 68°
2026-05-07 18:45 49.40168 5.34777 35065 ft 479 kts 68°
2026-05-07 18:45 49.42615 5.44298 35062 ft 479 kts 68°
2026-05-07 18:46 49.45055 5.53823 35059 ft 479 kts 68°
2026-05-07 18:46 49.47483 5.63347 35062 ft 479 kts 68°
2026-05-07 18:47 49.49905 5.72884 35063 ft 478 kts 68°
2026-05-07 18:47 49.52313 5.82427 35062 ft 478 kts 68°
2026-05-07 18:48 49.54713 5.91973 35058 ft 478 kts 68°
2026-05-07 18:48 49.57099 6.01522 35056 ft 478 kts 68°
2026-05-07 18:49 49.59484 6.11079 35059 ft 478 kts 68°
2026-05-07 18:49 49.61867 6.20639 35061 ft 478 kts 68°
2026-05-07 18:50 49.64401 6.30093 35061 ft 476 kts 61°
2026-05-07 18:50 49.67554 6.39091 35057 ft 476 kts 60°
2026-05-07 18:51 49.70699 6.48090 35059 ft 476 kts 61°
2026-05-07 18:51 49.73852 6.57169 35060 ft 476 kts 61°
2026-05-07 18:52 49.76984 6.66188 35055 ft 476 kts 61°
2026-05-07 18:52 49.80089 6.75153 35054 ft 476 kts 61°
2026-05-07 18:53 49.83201 6.84190 35053 ft 475 kts 61°
2026-05-07 18:53 49.86304 6.93239 35055 ft 475 kts 61°
2026-05-07 18:54 49.89397 7.02297 35060 ft 475 kts 61°
2026-05-07 18:54 49.92479 7.11358 35057 ft 475 kts 61°
2026-05-07 18:55 49.95561 7.20432 35061 ft 475 kts 61°
2026-05-07 18:55 49.98633 7.29491 35059 ft 474 kts 61°
2026-05-07 18:56 50.01693 7.38577 35062 ft 474 kts 62°
2026-05-07 18:56 50.04743 7.47679 35062 ft 474 kts 62°
2026-05-07 18:57 50.07787 7.56769 35065 ft 474 kts 62°
2026-05-07 18:57 50.10827 7.65859 35076 ft 473 kts 62°
2026-05-07 18:58 50.13855 7.74976 35073 ft 473 kts 62°
2026-05-07 18:58 50.16871 7.84097 35074 ft 473 kts 62°
2026-05-07 18:59 50.19878 7.93217 35075 ft 473 kts 62°
2026-05-07 18:59 50.22868 8.02361 35072 ft 473 kts 64°
2026-05-07 19:00 50.25170 8.11980 35074 ft 473 kts 69°
2026-05-07 19:00 50.27370 8.21673 35071 ft 473 kts 70°
2026-05-07 19:01 50.29550 8.31368 35074 ft 473 kts 70°
2026-05-07 19:01 50.31724 8.41070 35078 ft 472 kts 70°
2026-05-07 19:02 50.33886 8.50773 35085 ft 472 kts 70°
2026-05-07 19:02 50.36049 8.60482 35081 ft 472 kts 70°
2026-05-07 19:03 50.37840 8.68558 35081 ft 472 kts 70°
2026-05-07 19:03 50.40328 8.79851 35088 ft 472 kts 70°
2026-05-07 19:04 50.42455 8.89597 35081 ft 472 kts 70°
2026-05-07 19:04 50.44574 8.99325 35085 ft 472 kts 70°
2026-05-07 19:05 50.46352 9.07499 35083 ft 472 kts 70°